Regional Weather Roundup
Issued by NWS

Home | Current Version | Previous Version | Text Only | Print | Product List | Glossary Off
Versions: 1 2 3 4 5 6 7 8 9 10 11 12 13 14 15 16 17 18 19 20 21 22 23 24 25 26 27 28 29 30 31 32 33 34 35 36 37 38 39 40 41 42 43 44 45 46 47 48 49

000
ASUS43 KDMX 211307
RWRIA

WEATHER ROUNDUP FOR IOWA
NATIONAL WEATHER SERVICE DES MOINES IA
800 AM CDT THU AUG 21 2014

NOTE: "FAIR" INDICATES FEW OR NO CLOUDS BELOW 12,000 FEET WITH NO
SIGNIFICANT WEATHER AND/OR OBSTRUCTIONS TO VISIBILITY.

* - THESE STATIONS ARE NOT NWS STATIONS...THUS NOT UNDER NWS
QUALITY CONTROL.  THEY ALSO DO NOT REPORT WEATHER SUCH
AS PRECIPITATION OR FOG.

IAZ001>003-012>014-020>022-031>034-043>046-211400-
   NORTHWEST IOWA

CITY           SKY/WX    TMP DP  RH WIND       PRES   REMARKS
CARROLL *      MOSUNNY   75  70  83 SW10      29.81R
CHEROKEE *     CLOUDY    73  72  94 S12       29.81R
DENISON *      SUNNY     75  70  83 SW5       29.80R
LE MARS *      SUNNY     75  70  83 S9        29.79R
ORANGE CITY *  SUNNY     73  70  88 SW6       29.79S
SHELDON *      MOSUNNY   73  72  94 SW7       29.78R
SIOUX CITY     CLOUDY    74  67  78 S3        29.78R
SPENCER        LGT RAIN  74  69  85 SW12G22   29.80R
STORM LAKE *   CLOUDY    73  73 100 SW9       29.82R
$$

IAZ055>058-069>071-079>083-090>094-211400-
   SOUTHWEST IOWA

CITY           SKY/WX    TMP DP  RH WIND       PRES   REMARKS
ATLANTIC *     SUNNY     75  70  83 S10       29.82F
AUDUBON *      CLOUDY    75  72  88 S7        29.83F
CLARINDA *     PTSUNNY   75  72  88 SW13      29.88S FOG
COUNCIL BLFS * LGT RAIN  73  72  94 S10G18    29.77F
CRESTON *      SUNNY     75  72  88 SW10      29.88S
HARLAN  *      SUNNY     73  70  88 S13       29.82F
LAMONI         TSTM      74  70  87 S12       29.89R FOG
RED OAK *      SUNNY     73  72  94 S8        29.84F
SHENANDOAH *   SUNNY     75  72  88 S6        29.86S
$$

IAZ047>049-059>061-072>074-084-211400-
   CENTRAL IOWA

CITY           SKY/WX    TMP DP  RH WIND       PRES   REMARKS
AMES           CLOUDY    75  70  84 SW10      29.83R
ANKENY *       MOSUNNY   77  72  83 SW14G20   29.83R
CHARITON *     MOSUNNY   75  70  83 SW12      29.87R
DES MOINES     CLOUDY    78  69  73 SW13      29.83R HX  80
GRINNELL*      PTSUNNY   73  70  88 S9        29.86S
KNOXVILLE *    PTSUNNY   77  68  73 S9        29.85R
MARSHALLTOWN   CLOUDY    75  70  84 S10       29.83R
PELLA *        RAIN      75  70  83 SW8       29.88R
PERRY *          N/A     73  70  88 S6        29.84R
$$

IAZ004>006-015-016-023>025-035-036-211400-
   NORTH CENTRAL IOWA

CITY           SKY/WX    TMP DP  RH WIND       PRES   REMARKS
ALGONA *       LGT RAIN  73  72  94 S6G15     29.83R
CLARION *      PTSUNNY   73  72  94 SW5       29.83R
ESTHERVILLE    MOSUNNY   71  70  96 SE8       29.80R
FORT DODGE *   CLOUDY    73  70  88 SW9       29.83R
MASON CITY     LGT RAIN  71  71 100 E6        29.89R FOG
FOREST CITY *  LGT RAIN  72  72 100 E10       29.83F
IOWA FALLS *     N/A     73  70  88 S9        29.84R
$$

IAZ007>011-017>019-026>030-037>042-050>054-066-211400-
   NORTHEAST IOWA

CITY           SKY/WX    TMP DP  RH WIND       PRES   REMARKS
CEDAR RAPIDS   CLOUDY    73  72  96 SE7       29.87R
CHARLES CITY * CLOUDY    72  70  94 CALM      29.87R FOG
CLINTON *      CLOUDY    72  70  94 E9        29.96R
DECORAH *      CLOUDY    70  70 100 SE9       29.86F FOG
DUBUQUE        CLOUDY    70  69  97 SE14      29.91F FOG
MONTICELLO *   PTSUNNY   72  72 100 E7G14     29.89S FOG
OELWEIN *      MOSUNNY   72  72 100 SE7       29.88R
WATERLOO       CLOUDY    72  70  93 VRB6      29.84R THUNDER
$$

IAZ064-065-067-068-078-211400-
   EAST CENTRAL IOWA

CITY           SKY/WX    TMP DP  RH WIND       PRES   REMARKS
DAVENPORT      CLOUDY    73  70  90 SE5       29.92R
IOWA CITY      CLOUDY    74  72  93 SE5       29.89R
MT. PLEASANT * PTSUNNY   73  70  88 S8        29.90S
MUSCATINE *    MOSUNNY   73  70  88 S7        29.90R
QUAD CITIES    CLOUDY    74  69  85 S5        29.91R
$$

IAZ062-063-075>077-085>089-095>099-211400-
   SOUTHEAST IOWA

CITY           SKY/WX    TMP DP  RH WIND       PRES   REMARKS
BURLINGTON     MOSUNNY   74  70  87 SW8       29.91R
FAIRFIELD *    SUNNY     73  68  83 S7        29.89S
FORT MADISON * SUNNY     75  72  88 S8        29.92S
KEOKUK *       SUNNY     73  70  88 SW9       29.92R
OSKALOOSA *      N/A     73  70  88 S7        29.87S
CENTERVILLE *  SUNNY     75  70  83 S9        29.91R
OTTUMWA        PTSUNNY   74  69  85 S10       29.86S
WASHINGTON *   SUNNY     73  72  94 S8        29.89R
$$

ABBREVIATIONS USED IN REMARKS
   TC - TEMPERATURES IN CELSIUS
  WCI - WIND CHILL INDEX
   HX - HEAT INDEX
  VSB - VISIBILITY
$$




USA.gov is the U.S. government's official web portal to all federal, state and local government web resources and services.